Time,TemperatureF,DewpointF,PressureIn,WindDirection,WindDirectionDegrees,WindSpeedMPH,WindSpeedGustMPH,Humidity,HourlyPrecipIn,Conditions,Clouds,dailyrainin,SoftwareType,DateUTC
2013-02-24 00:01:00,42.0,-99.9,30.38,SE,146,8.0,11.0,-999,-99.99,,,-99.99,,2013-02-24 08:01:00,
2013-02-24 00:11:00,42.0,-99.9,30.39,SE,143,8.0,11.0,-999,-99.99,,,-99.99,,2013-02-24 08:11:00,
2013-02-24 00:22:00,42.0,-99.9,30.38,SE,141,6.0,9.0,-999,-99.99,,,-99.99,,2013-02-24 08:22:00,
2013-02-24 00:32:00,42.0,-99.9,30.39,SE,146,5.0,9.0,-999,-99.99,,,-99.99,,2013-02-24 08:32:00,
2013-02-24 00:42:00,42.0,-99.9,30.38,SSE,150,5.0,9.0,-999,-99.99,,,-99.99,,2013-02-24 08:42:00,
2013-02-24 00:54:00,42.0,-99.9,30.39,SSE,154,6.0,11.0,-999,-99.99,,,-99.99,,2013-02-24 08:54:00,
2013-02-24 01:02:00,42.0,-99.9,30.39,SE,146,7.0,10.0,-999,-99.99,,,-99.99,,2013-02-24 09:02:00,
2013-02-24 01:11:00,42.0,-99.9,30.39,SSE,154,6.0,11.0,-999,-99.99,,,-99.99,,2013-02-24 09:11:00,
2013-02-24 01:22:00,42.0,-99.9,30.39,SE,146,8.0,11.0,-999,-99.99,,,-99.99,,2013-02-24 09:22:00,
2013-02-24 01:32:00,42.0,-99.9,30.38,SE,138,6.0,10.0,-999,-99.99,,,-99.99,,2013-02-24 09:32:00,
2013-02-24 01:42:00,42.0,-99.9,30.38,SSE,154,6.0,10.0,-999,-99.99,,,-99.99,,2013-02-24 09:42:00,
2013-02-24 01:52:00,42.0,-99.9,30.38,SE,137,7.0,11.0,-999,-99.99,,,-99.99,,2013-02-24 09:52:00,
2013-02-24 02:01:00,42.0,-99.9,30.38,SE,143,7.0,9.0,-999,-99.99,,,-99.99,,2013-02-24 10:01:00,
2013-02-24 02:11:00,42.0,-99.9,30.38,SE,143,7.0,11.0,-999,-99.99,,,-99.99,,2013-02-24 10:11:00,
2013-02-24 02:22:00,42.0,-99.9,30.38,SE,141,6.0,11.0,-999,-99.99,,,-99.99,,2013-02-24 10:22:00,
2013-02-24 02:32:00,42.0,-99.9,30.38,SSE,150,6.0,9.0,-999,-99.99,,,-99.99,,2013-02-24 10:32:00,
2013-02-24 02:42:00,42.0,-99.9,30.38,SSE,155,5.0,10.0,-999,-99.99,,,-99.99,,2013-02-24 10:42:00,
2013-02-24 02:52:00,42.0,-99.9,30.39,SSE,160,5.0,10.0,-999,-99.99,,,-99.99,,2013-02-24 10:52:00,
2013-02-24 03:01:00,42.0,-99.9,30.38,SSE,155,6.0,9.0,-999,-99.99,,,-99.99,,2013-02-24 11:01:00,
2013-02-24 03:11:00,42.0,-99.9,30.38,SSE,163,7.0,12.0,-999,-99.99,,,-99.99,,2013-02-24 11:11:00,
2013-02-24 03:22:00,42.0,-99.9,30.38,SSE,164,5.0,15.0,-999,-99.99,,,-99.99,,2013-02-24 11:22:00,
2013-02-24 03:32:00,42.0,-99.9,30.38,SSE,167,7.0,11.0,-999,-99.99,,,-99.99,,2013-02-24 11:32:00,
2013-02-24 03:42:00,42.0,-99.9,30.38,South,169,8.0,11.0,-999,-99.99,,,-99.99,,2013-02-24 11:42:00,
2013-02-24 03:53:00,42.0,-99.9,30.38,South,174,9.0,13.0,-999,-99.99,,,-99.99,,2013-02-24 11:53:00,
2013-02-24 04:02:00,42.0,-99.9,30.38,SSE,160,6.0,9.0,-999,-99.99,,,-99.99,,2013-02-24 12:02:00,
2013-02-24 04:11:00,42.0,-99.9,30.38,SSE,160,5.0,10.0,-999,-99.99,,,-99.99,,2013-02-24 12:11:00,
2013-02-24 04:22:00,42.0,-99.9,30.38,SSE,152,5.0,10.0,-999,-99.99,,,-99.99,,2013-02-24 12:22:00,
2013-02-24 04:33:00,42.0,-99.9,30.38,SSE,159,6.0,9.0,-999,-99.99,,,-99.99,,2013-02-24 12:33:00,
2013-02-24 04:46:00,42.0,-99.9,30.37,SSE,162,6.0,9.0,-999,-99.99,,,-99.99,,2013-02-24 12:46:00,
2013-02-24 05:00:00,42.0,-99.9,30.37,SSE,153,5.0,8.0,-999,-99.99,,,-99.99,,2013-02-24 13:00:00,
2013-02-24 05:15:00,42.0,-99.9,30.37,SSE,161,6.0,9.0,-999,-99.99,,,-99.99,,2013-02-24 13:15:00,
2013-02-24 05:35:00,42.0,-99.9,30.37,South,177,8.0,11.0,-999,-99.99,,,-99.99,,2013-02-24 13:35:00,
2013-02-24 05:45:00,42.0,-99.9,30.37,SSE,154,5.0,12.0,-999,-99.99,,,-99.99,,2013-02-24 13:45:00,
2013-02-24 05:56:00,42.0,-99.9,30.36,SSE,149,8.0,11.0,-999,-99.99,,,-99.99,,2013-02-24 13:56:00,
2013-02-24 06:05:00,42.0,-99.9,30.37,SSE,157,8.0,12.0,-999,-99.99,,,-99.99,,2013-02-24 14:05:00,
2013-02-24 06:14:00,42.0,-99.9,30.36,SSE,154,6.0,9.0,-999,-99.99,,,-99.99,,2013-02-24 14:14:00,
2013-02-24 06:25:00,42.0,-99.9,30.36,SSE,157,5.0,9.0,-999,-99.99,,,-99.99,,2013-02-24 14:25:00,
2013-02-24 06:35:00,43.0,-99.9,30.36,South,172,7.0,11.0,-999,-99.99,,,-99.99,,2013-02-24 14:35:00,
2013-02-24 06:45:00,43.0,-99.9,30.36,SSE,164,6.0,12.0,-999,-99.99,,,-99.99,,2013-02-24 14:45:00,
2013-02-24 06:55:00,43.0,-99.9,30.36,South,184,6.0,10.0,-999,-99.99,,,-99.99,,2013-02-24 14:55:00,
2013-02-24 07:04:00,43.0,-99.9,30.35,South,182,7.0,14.0,-999,-99.99,,,-99.99,,2013-02-24 15:04:00,
2013-02-24 07:14:00,43.0,-99.9,30.35,South,177,6.0,11.0,-999,-99.99,,,-99.99,,2013-02-24 15:14:00,
2013-02-24 07:24:00,43.0,-99.9,30.35,SSE,164,7.0,12.0,-999,-99.99,,,-99.99,,2013-02-24 15:24:00,
2013-02-24 07:32:00,43.0,-99.9,30.35,SSE,156,6.0,13.0,-999,-99.99,,,-99.99,,2013-02-24 15:32:00,
2013-02-24 07:42:00,43.0,-99.9,30.35,SSE,149,9.0,13.0,-999,-99.99,,,-99.99,,2013-02-24 15:42:00,
2013-02-24 07:53:00,43.0,-99.9,30.35,SE,142,6.0,12.0,-999,-99.99,,,-99.99,,2013-02-24 15:53:00,
2013-02-24 08:02:00,43.0,-99.9,30.35,SSE,151,6.0,10.0,-999,-99.99,,,-99.99,,2013-02-24 16:02:00,
2013-02-24 08:12:00,43.0,-99.9,30.35,South,173,4.0,7.0,-999,-99.99,,,-99.99,,2013-02-24 16:12:00,
2013-02-24 08:22:00,43.0,-99.9,30.35,South,182,11.0,15.0,-999,-99.99,,,-99.99,,2013-02-24 16:22:00,
2013-02-24 08:32:00,43.0,-99.9,30.35,South,171,10.0,14.0,-999,-99.99,,,-99.99,,2013-02-24 16:32:00,
2013-02-24 08:42:00,43.0,-99.9,30.35,South,174,6.0,13.0,-999,-99.99,,,-99.99,,2013-02-24 16:42:00,
2013-02-24 08:52:00,43.0,-99.9,30.35,SSE,164,9.0,13.0,-999,-99.99,,,-99.99,,2013-02-24 16:52:00,
2013-02-24 09:01:00,43.0,-99.9,30.35,South,174,7.0,13.0,-999,-99.99,,,-99.99,,2013-02-24 17:01:00,
2013-02-24 09:11:00,43.0,-99.9,30.35,SSE,168,11.0,16.0,-999,-99.99,,,-99.99,,2013-02-24 17:11:00,
2013-02-24 09:22:00,44.0,-99.9,30.35,South,176,7.0,15.0,-999,-99.99,,,-99.99,,2013-02-24 17:22:00,
2013-02-24 09:32:00,44.0,-99.9,30.35,South,175,5.0,13.0,-999,-99.99,,,-99.99,,2013-02-24 17:32:00,
2013-02-24 09:42:00,44.0,-99.9,30.34,SSE,166,6.0,11.0,-999,-99.99,,,-99.99,,2013-02-24 17:42:00,
2013-02-24 09:53:00,45.0,-99.9,30.34,SSE,154,8.0,14.0,-999,-99.99,,,-99.99,,2013-02-24 17:53:00,
2013-02-24 10:02:00,46.0,-99.9,30.35,SSE,163,9.0,15.0,-999,-99.99,,,-99.99,,2013-02-24 18:02:00,
2013-02-24 10:12:00,45.0,-99.9,30.34,South,171,13.0,19.0,-999,-99.99,,,-99.99,,2013-02-24 18:12:00,
2013-02-24 10:22:00,45.0,-99.9,30.34,South,185,10.0,21.0,-999,-99.99,,,-99.99,,2013-02-24 18:22:00,
2013-02-24 10:32:00,45.0,-99.9,30.34,South,170,11.0,17.0,-999,-99.99,,,-99.99,,2013-02-24 18:32:00,
2013-02-24 10:42:00,46.0,-99.9,30.33,South,177,10.0,15.0,-999,-99.99,,,-99.99,,2013-02-24 18:42:00,
2013-02-24 10:52:00,46.0,-99.9,30.33,South,169,8.0,14.0,-999,-99.99,,,-99.99,,2013-02-24 18:52:00,
2013-02-24 11:01:00,46.0,-99.9,30.33,SSW,208,13.0,19.0,-999,-99.99,,,-99.99,,2013-02-24 19:01:00,
2013-02-24 11:12:00,46.0,-99.9,30.33,SSE,164,6.0,19.0,-999,-99.99,,,-99.99,,2013-02-24 19:12:00,
2013-02-24 11:22:00,46.0,-99.9,30.33,SSE,160,5.0,17.0,-999,-99.99,,,-99.99,,2013-02-24 19:22:00,
2013-02-24 11:32:00,46.0,-99.9,30.32,SSE,167,10.0,18.0,-999,-99.99,,,-99.99,,2013-02-24 19:32:00,
2013-02-24 11:42:00,47.0,-99.9,30.32,South,181,8.0,17.0,-999,-99.99,,,-99.99,,2013-02-24 19:42:00,
2013-02-24 11:52:00,47.0,-99.9,30.32,South,171,6.0,13.0,-999,-99.99,,,-99.99,,2013-02-24 19:52:00,
2013-02-24 12:02:00,47.0,-99.9,30.31,South,178,7.0,18.0,-999,-99.99,,,-99.99,,2013-02-24 20:02:00,
2013-02-24 12:11:00,47.0,-99.9,30.31,South,189,9.0,15.0,-999,-99.99,,,-99.99,,2013-02-24 20:11:00,
2013-02-24 12:22:00,46.0,-99.9,30.31,South,178,8.0,19.0,-999,-99.99,,,-99.99,,2013-02-24 20:22:00,
2013-02-24 12:32:00,46.0,-99.9,30.31,South,185,8.0,17.0,-999,-99.99,,,-99.99,,2013-02-24 20:32:00,
2013-02-24 12:42:00,46.0,-99.9,30.30,South,177,11.0,19.0,-999,-99.99,,,-99.99,,2013-02-24 20:42:00,
2013-02-24 12:52:00,46.0,-99.9,30.30,SSE,167,10.0,18.0,-999,-99.99,,,-99.99,,2013-02-24 20:52:00,
2013-02-24 13:02:00,46.0,-99.9,30.30,SSE,158,12.0,18.0,-999,-99.99,,,-99.99,,2013-02-24 21:02:00,
2013-02-24 13:11:00,46.0,-99.9,30.29,South,172,13.0,17.0,-999,-99.99,,,-99.99,,2013-02-24 21:11:00,
2013-02-24 13:21:00,46.0,-99.9,30.29,SSE,165,10.0,17.0,-999,-99.99,,,-99.99,,2013-02-24 21:21:00,
2013-02-24 13:32:00,47.0,-99.9,30.28,SSW,199,7.0,18.0,-999,-99.99,,,-99.99,,2013-02-24 21:32:00,
2013-02-24 13:42:00,47.0,-99.9,30.27,South,175,8.0,19.0,-999,-99.99,,,-99.99,,2013-02-24 21:42:00,
2013-02-24 13:52:00,47.0,-99.9,30.27,South,181,7.0,15.0,-999,-99.99,,,-99.99,,2013-02-24 21:52:00,
2013-02-24 14:01:00,47.0,-99.9,30.27,South,191,6.0,16.0,-999,-99.99,,,-99.99,,2013-02-24 22:01:00,
2013-02-24 14:11:00,47.0,-99.9,30.27,SSW,198,8.0,15.0,-999,-99.99,,,-99.99,,2013-02-24 22:11:00,
2013-02-24 14:22:00,47.0,-99.9,30.27,South,175,8.0,20.0,-999,-99.99,,,-99.99,,2013-02-24 22:22:00,
2013-02-24 14:32:00,47.0,-99.9,30.26,SSW,207,13.0,22.0,-999,-99.99,,,-99.99,,2013-02-24 22:32:00,
2013-02-24 14:42:00,47.0,-99.9,30.25,SSE,162,5.0,13.0,-999,-99.99,,,-99.99,,2013-02-24 22:42:00,
2013-02-24 14:52:00,47.0,-99.9,30.25,South,169,5.0,15.0,-999,-99.99,,,-99.99,,2013-02-24 22:52:00,
2013-02-24 15:02:00,47.0,-99.9,30.24,SSE,168,9.0,16.0,-999,-99.99,,,-99.99,,2013-02-24 23:02:00,
2013-02-24 15:11:00,47.0,-99.9,30.24,SSE,165,9.0,13.0,-999,-99.99,,,-99.99,,2013-02-24 23:11:00,
2013-02-24 15:22:00,47.0,-99.9,30.24,South,189,6.0,13.0,-999,-99.99,,,-99.99,,2013-02-24 23:22:00,
2013-02-24 15:32:00,47.0,-99.9,30.23,South,190,11.0,21.0,-999,-99.99,,,-99.99,,2013-02-24 23:32:00,
2013-02-24 15:42:00,47.0,-99.9,30.23,SSW,197,11.0,17.0,-999,-99.99,,,-99.99,,2013-02-24 23:42:00,
2013-02-24 15:52:00,47.0,-99.9,30.22,South,178,10.0,16.0,-999,-99.99,,,-99.99,,2013-02-24 23:52:00,
2013-02-24 16:02:00,47.0,-99.9,30.22,South,175,7.0,12.0,-999,-99.99,,,-99.99,,2013-02-25 00:02:00,
2013-02-24 16:11:00,48.0,-99.9,30.21,South,185,6.0,12.0,-999,-99.99,,,-99.99,,2013-02-25 00:11:00,
2013-02-24 16:22:00,47.0,-99.9,30.21,South,171,10.0,16.0,-999,-99.99,,,-99.99,,2013-02-25 00:22:00,
2013-02-24 16:32:00,48.0,-99.9,30.20,South,169,8.0,15.0,-999,-99.99,,,-99.99,,2013-02-25 00:32:00,
2013-02-24 16:42:00,48.0,-99.9,30.20,SSE,166,6.0,12.0,-999,-99.99,,,-99.99,,2013-02-25 00:42:00,
2013-02-24 16:52:00,48.0,-99.9,30.19,South,172,9.0,13.0,-999,-99.99,,,-99.99,,2013-02-25 00:52:00,
2013-02-24 17:02:00,48.0,-99.9,30.19,SSW,199,7.0,14.0,-999,-99.99,,,-99.99,,2013-02-25 01:02:00,
2013-02-24 17:11:00,48.0,-99.9,30.18,South,173,8.0,14.0,-999,-99.99,,,-99.99,,2013-02-25 01:11:00,
2013-02-24 17:22:00,48.0,-99.9,30.18,South,169,10.0,15.0,-999,-99.99,,,-99.99,,2013-02-25 01:22:00,
2013-02-24 17:32:00,48.0,-99.9,30.17,South,171,9.0,13.0,-999,-99.99,,,-99.99,,2013-02-25 01:32:00,
2013-02-24 17:42:00,48.0,-99.9,30.17,South,185,3.0,10.0,-999,-99.99,,,-99.99,,2013-02-25 01:42:00,
2013-02-24 17:52:00,48.0,-99.9,30.16,South,178,4.0,15.0,-999,-99.99,,,-99.99,,2013-02-25 01:52:00,
2013-02-24 18:01:00,48.0,-99.9,30.16,South,169,4.0,13.0,-999,-99.99,,,-99.99,,2013-02-25 02:01:00,
2013-02-24 18:11:00,48.0,-99.9,30.15,South,180,6.0,14.0,-999,-99.99,,,-99.99,,2013-02-25 02:11:00,
2013-02-24 18:21:00,48.0,-99.9,30.15,South,190,5.0,9.0,-999,-99.99,,,-99.99,,2013-02-25 02:21:00,
2013-02-24 18:32:00,48.0,-99.9,30.14,South,178,6.0,13.0,-999,-99.99,,,-99.99,,2013-02-25 02:32:00,
2013-02-24 18:42:00,48.0,-99.9,30.14,South,175,5.0,11.0,-999,-99.99,,,-99.99,,2013-02-25 02:42:00,
2013-02-24 18:52:00,48.0,-99.9,30.13,SSE,162,7.0,12.0,-999,-99.99,,,-99.99,,2013-02-25 02:52:00,
2013-02-24 19:02:00,48.0,-99.9,30.13,South,183,6.0,11.0,-999,-99.99,,,-99.99,,2013-02-25 03:02:00,
2013-02-24 19:11:00,48.0,-99.9,30.12,South,170,9.0,15.0,-999,-99.99,,,-99.99,,2013-02-25 03:11:00,
2013-02-24 19:21:00,48.0,-99.9,30.12,South,169,7.0,13.0,-999,-99.99,,,-99.99,,2013-02-25 03:21:00,
2013-02-24 19:32:00,48.0,-99.9,30.11,South,174,5.0,13.0,-999,-99.99,,,-99.99,,2013-02-25 03:32:00,
2013-02-24 19:42:00,48.0,-99.9,30.11,South,178,7.0,12.0,-999,-99.99,,,-99.99,,2013-02-25 03:42:00,
2013-02-24 19:52:00,48.0,-99.9,30.11,South,174,5.0,11.0,-999,-99.99,,,-99.99,,2013-02-25 03:52:00,
2013-02-24 20:02:00,48.0,-99.9,30.10,SSE,166,6.0,11.0,-999,-99.99,,,-99.99,,2013-02-25 04:02:00,
2013-02-24 20:11:00,48.0,-99.9,30.09,SSE,156,8.0,14.0,-999,-99.99,,,-99.99,,2013-02-25 04:11:00,
2013-02-24 20:22:00,48.0,-99.9,30.09,SSE,155,6.0,14.0,-999,-99.99,,,-99.99,,2013-02-25 04:22:00,
2013-02-24 20:32:00,47.0,-99.9,30.08,South,170,6.0,14.0,-999,-99.99,,,-99.99,,2013-02-25 04:32:00,
2013-02-24 20:42:00,48.0,-99.9,30.07,South,170,9.0,14.0,-999,-99.99,,,-99.99,,2013-02-25 04:42:00,
2013-02-24 20:52:00,48.0,-99.9,30.07,SSE,166,8.0,12.0,-999,-99.99,,,-99.99,,2013-02-25 04:52:00,
2013-02-24 21:01:00,48.0,-99.9,30.06,SSE,164,5.0,10.0,-999,-99.99,,,-99.99,,2013-02-25 05:01:00,
2013-02-24 21:11:00,48.0,-99.9,30.06,South,181,6.0,10.0,-999,-99.99,,,-99.99,,2013-02-25 05:11:00,
2013-02-24 21:22:00,48.0,-99.9,30.06,SSE,168,5.0,9.0,-999,-99.99,,,-99.99,,2013-02-25 05:22:00,
2013-02-24 21:32:00,48.0,-99.9,30.06,South,172,8.0,13.0,-999,-99.99,,,-99.99,,2013-02-25 05:32:00,
2013-02-24 21:42:00,48.0,-99.9,30.05,SSE,163,6.0,11.0,-999,-99.99,,,-99.99,,2013-02-25 05:42:00,
2013-02-24 21:52:00,48.0,-99.9,30.05,SSE,168,6.0,10.0,-999,-99.99,,,-99.99,,2013-02-25 05:52:00,
2013-02-24 22:03:00,48.0,-99.9,30.04,South,189,6.0,13.0,-999,-99.99,,,-99.99,,2013-02-25 06:03:00,
2013-02-24 22:12:00,48.0,-99.9,30.04,South,190,5.0,12.0,-999,-99.99,,,-99.99,,2013-02-25 06:12:00,
2013-02-24 22:22:00,47.0,-99.9,30.03,South,175,6.0,16.0,-999,-99.99,,,-99.99,,2013-02-25 06:22:00,
2013-02-24 22:32:00,47.0,-99.9,30.03,SSE,156,11.0,22.0,-999,-99.99,,,-99.99,,2013-02-25 06:32:00,
2013-02-24 22:42:00,47.0,-99.9,30.02,SSE,164,8.0,18.0,-999,-99.99,,,-99.99,,2013-02-25 06:42:00,
2013-02-24 22:52:00,47.0,-99.9,30.01,SSE,162,10.0,19.0,-999,-99.99,,,-99.99,,2013-02-25 06:52:00,
2013-02-24 23:01:00,47.0,-99.9,30.01,SE,142,10.0,17.0,-999,-99.99,,,-99.99,,2013-02-25 07:01:00,
2013-02-24 23:11:00,47.0,-99.9,29.99,SSE,151,8.0,20.0,-999,-99.99,,,-99.99,,2013-02-25 07:11:00,
2013-02-24 23:21:00,47.0,-99.9,29.98,SSE,149,11.0,16.0,-999,-99.99,,,-99.99,,2013-02-25 07:21:00,
2013-02-24 23:32:00,47.0,-99.9,29.98,ESE,120,9.0,14.0,-999,-99.99,,,-99.99,,2013-02-25 07:32:00,
2013-02-24 23:42:00,48.0,-99.9,29.97,SSE,150,8.0,15.0,-999,-99.99,,,-99.99,,2013-02-25 07:42:00,
2013-02-24 23:52:00,47.0,-99.9,29.97,SSE,155,6.0,15.0,-999,-99.99,,,-99.99,,2013-02-25 07:52:00,